This is the latest recevied weather packets stored in our database for station/object K5NCO. If no packets are shown the sender has not sent any weather packets the latest 10 day(s).
| Time | Temp. | Humidity | Pressure | Rain* | Wind** | Luminosity | Snow |
|---|---|---|---|---|---|---|---|
| 1777857388 | 22.78° C | 42% | 1018.6 hPa | 0 mm | - | 1 W/m² | - |
| 1777857085 | 22.78° C | 42% | 1018.6 hPa | 0 mm | - | 2 W/m² | - |
| 1777856780 | 22.78° C | 41% | 1018.4 hPa | 0 mm | - | 3 W/m² | - |
| 1777856476 | 23.33° C | 42% | 1018.5 hPa | 0 mm | - | 6 W/m² | - |
| 1777856173 | 23.33° C | 41% | 1018.5 hPa | 0 mm | - | 8 W/m² | - |
| 1777855870 | 23.33° C | 41% | 1018.4 hPa | 0 mm | - | 10 W/m² | - |
| 1777855568 | 23.33° C | 41% | 1018.4 hPa | 0 mm | - | 15 W/m² | - |
| 1777855266 | 23.33° C | 41% | 1018.5 hPa | 0 mm | - | 20 W/m² | - |
| 1777854961 | 23.33° C | 41% | 1018.5 hPa | 0 mm | - | 23 W/m² | - |
| 1777854658 | 23.89° C | 42% | 1018.5 hPa | 0 mm | - | 30 W/m² | - |
| 1777854355 | 23.89° C | 42% | 1018.5 hPa | 0 mm | - | 42 W/m² | - |
| 1777854053 | 23.89° C | 42% | 1018.8 hPa | 0 mm | - | 58 W/m² | - |
| 1777853750 | 23.89° C | 41% | 1018.7 hPa | 0 mm | - | 71 W/m² | - |
| 1777853446 | 23.89° C | 42% | 1018.6 hPa | 0 mm | - | 63 W/m² | - |
| 1777853144 | 23.89° C | 43% | 1018.9 hPa | 0 mm | - | 60 W/m² | - |
| 1777852841 | 23.89° C | 43% | 1018.9 hPa | 0 mm | - | 54 W/m² | - |
| 1777852539 | 23.89° C | 42% | 1019 hPa | 0 mm | - | 57 W/m² | - |
| 1777852236 | 23.89° C | 41% | 1018.9 hPa | 0 mm | - | 63 W/m² | - |
| 1777851933 | 24.44° C | 42% | 1018.9 hPa | 0 mm | - | 82 W/m² | - |
| 1777851631 | 24.44° C | 41% | 1018.9 hPa | 0 mm | - | 130 W/m² | - |
| 1777851327 | 24.44° C | 42% | 1019 hPa | 0 mm | - | 157 W/m² | - |
| 1777851023 | 24.44° C | 42% | 1019 hPa | 0 mm | - | 144 W/m² | - |
| 1777850721 | 24.44° C | 41% | 1019 hPa | 0 mm | - | 136 W/m² | - |
| 1777850418 | 24.44° C | 42% | 1019.2 hPa | 0 mm | - | 122 W/m² | - |
| 1777850116 | 24.44° C | 41% | 1019.1 hPa | 0 mm | - | 105 W/m² | - |
* Rain latest hour (hover to see other rain measurements)
** Current wind speed in m/s (hover to see current wind gust speed)